カタログに戻る

STARLINK-30080

運用中通信VLEO
NORAD 56705·PAYLOAD·🇺🇸 United States

打ち上げ May 19, 2023 から Cape Canaveral Space Force Station

Loading…

次のパス (今後24時間)

TLE

最新Source: CelesTrak SupGP

元期: Sep 14, 2026, 20:55 UTC

1 56705C 23067T   26257.87201389  .00010483  00000+0  37980-3 0  2573
2 56705  43.0001 274.6562 0001518 268.2661 142.8526 15.27564025    17

AllMySatでSTARLINK-30080をリアルタイム追跡

Download on the App Store